User: anonymous   Login
Location: Vancouver
(49.2500°N, 123.1330°W)
Time: 13:16:13
(UTC-07:00)
Language:

Cosmos 2333 Rocket - Orbit

View from above orbital plane
View from above orbital plane
View from above satellite
View from above satellite

Ground track
Ground track

The orbit data is extracted from the following two-line orbital elements,

1 24298U 96051B   18115.46014777 -.00000160  00000-0 -60369-4 0  9995
2 24298  70.8360 123.9274 0013298  77.3068 282.9537 14.12448039115923
Epoch (UTC): 25 April 2018 11:02:36
Eccentricity: 0.0013298
inclination: 70.8360°
perigee height: 841 km
apogee height: 860 km
right ascension of ascending node: 123.9274°
argument of perigee: 77.3068°
revolutions per day: 14.12448039
mean anomaly at epoch: 282.9537°
orbit number at epoch: 11592

The dashed part of the orbit path shows where the satellite is in the earth's shadow,  

DLR